Tillbaka till svenska Fidonet
English   Information   Debug  
FILM   0/18
FNEWS_PUBLISH   5083
FN_SYSOP   42250
FN_SYSOP_OLD1   71952
FTP_FIDO   0/2
FTSC_PUBLIC   0/13992
FUNNY   0/4886
GENEALOGY.EUR   0/71
GET_INFO   105
GOLDED   0/408
HAM   5030/16958
HOLYSMOKE   0/6791
HOT_SITES   0/1
HTMLEDIT   0/71
HUB203   466
HUB_100   264
HUB_400   39
HUMOR   0/29
IC   0/2851
INTERNET   0/424
INTERUSER   0/3
IP_CONNECT   719
JAMNNTPD   0/233
JAMTLAND   0/47
KATTY_KORNER   0/41
LAN   0/16
LINUX-USER   0/19
LINUXHELP   0/1155
LINUX   0/22471
LINUX_BBS   0/957
mail   18.68
mail_fore_ok   249
MENSA   0/341
MODERATOR   0/102
MONTE   0/992
MOSCOW_OKLAHOMA   0/1245
MUFFIN   0/783
MUSIC   0/321
N203_STAT   940
N203_SYSCHAT   313
NET203   321
NET204   69
NET_DEV   0/10
NORD.ADMIN   0/101
NORD.CHAT   0/2572
NORD.FIDONET   189
NORD.HARDWARE   0/28
NORD.KULTUR   0/114
NORD.PROG   0/32
NORD.SOFTWARE   0/88
NORD.TEKNIK   0/58
NORD   0/453
OCCULT_CHAT   0/93
OS2BBS   0/787
OS2DOSBBS   0/580
OS2HW   0/42
OS2INET   0/37
OS2LAN   0/134
OS2PROG   0/36
OS2REXX   0/113
OS2USER-L   207
OS2   0/4837
OSDEBATE   0/18996
PASCAL   0/490
PERL   0/457
PHP   0/45
POINTS   0/405
POLITICS   0/29554
POL_INC   0/14731
PSION   103
R20_ADMIN   1134
R20_AMATORRADIO   0/2
R20_BEST_OF_FIDONET   17
R20_CHAT   0/899
R20_DEPP   0/3
R20_DEV   400
R20_ECHO2   1988
R20_ECHOPRES   0/35
R20_ESTAT   0/719
R20_FIDONETPROG...
...RAM.MYPOINT
  0/2
R20_FIDONETPROGRAM   0/22
R20_FIDONET   0/248
R20_FILEFIND   0/24
R20_FILEFOUND   0/22
R20_HIFI   0/3
R20_INFO2   3881
R20_INTERNET   0/12940
R20_INTRESSE   0/60
R20_INTR_KOM   0/99
R20_KANDIDAT.CHAT   42
R20_KANDIDAT   28
R20_KOM_DEV   112
R20_KONTROLL   0/13376
R20_KORSET   0/18
R20_LOKALTRAFIK   0/24
R20_MODERATOR   0/1852
R20_NC   76
R20_NET200   245
R20_NETWORK.OTH...
...ERNETS
  0/13
R20_OPERATIVSYS...
...TEM.LINUX
  0/45
R20_PROGRAMVAROR   0/1
R20_REC2NEC   534
R20_SFOSM   0/341
R20_SF   0/108
R20_SPRAK.ENGLISH   0/1
R20_SQUISH   107
R20_TEST   2
R20_WORST_OF_FIDONET   21
RAR   0/9
RA_MULTI   106
RA_UTIL   0/162
REGCON.EUR   0/2072
REGCON   0/13
SCIENCE   0/1206
SF   0/239
SHAREWARE_SUPPORT   0/5146
SHAREWRE   0/14
SIMPSONS   0/169
STATS_OLD1   0/2539.065
STATS_OLD2   0/2530
STATS_OLD3   0/2395.095
STATS_OLD4   0/1692.25
SURVIVOR   0/495
SYSOPS_CORNER   0/3
SYSOP   0/84
TAGLINES   0/112
TEAMOS2   0/4530
TECH   0/2617
TEST.444   0/105
TRAPDOOR   0/19
TREK   0/755
TUB   0/290
UFO   0/40
UNIX   0/1316
USA_EURLINK   0/102
USR_MODEMS   0/1
VATICAN   0/2740
VIETNAM_VETS   0/14
VIRUS   0/378
VIRUS_INFO   0/201
VISUAL_BASIC   0/473
WHITEHOUSE   0/5187
WIN2000   0/101
WIN32   0/30
WIN95   0/4291
WIN95_OLD1   0/70272
WINDOWS   0/1517
WWB_SYSOP   0/419
WWB_TECH   0/810
ZCC-PUBLIC   0/1
ZEC   4

 
4DOS   0/134
ABORTION   0/7
ALASKA_CHAT   0/506
ALLFIX_FILE   0/1313
ALLFIX_FILE_OLD1   0/7997
ALT_DOS   0/152
AMATEUR_RADIO   0/1039
AMIGASALE   0/14
AMIGA   0/331
AMIGA_INT   0/1
AMIGA_PROG   0/20
AMIGA_SYSOP   0/26
ANIME   0/15
ARGUS   0/924
ASCII_ART   0/340
ASIAN_LINK   0/651
ASTRONOMY   0/417
AUDIO   0/92
AUTOMOBILE_RACING   0/105
BABYLON5   0/17862
BAG   135
BATPOWER   0/361
BBBS.ENGLISH   0/382
BBSLAW   0/109
BBS_ADS   0/5290
BBS_INTERNET   0/507
BIBLE   0/3563
BINKD   0/1119
BINKLEY   0/215
BLUEWAVE   0/2173
CABLE_MODEMS   0/25
CBM   0/46
CDRECORD   0/66
CDROM   0/20
CLASSIC_COMPUTER   0/378
COMICS   0/15
CONSPRCY   0/899
COOKING   42806
COOKING_OLD1   0/24719
COOKING_OLD2   0/40862
COOKING_OLD3   0/37489
COOKING_OLD4   0/35496
COOKING_OLD5   9370
C_ECHO   0/189
C_PLUSPLUS   0/31
DIRTY_DOZEN   0/201
DOORGAMES   0/2396
DOS_INTERNET   0/196
duplikat   6103
ECHOLIST   0/18295
EC_SUPPORT   0/318
ELECTRONICS   0/359
ELEKTRONIK.GER   1534
ENET.LINGUISTIC   0/13
ENET.POLITICS   0/4
ENET.SOFT   0/11701
ENET.SYSOP   34568
ENET.TALKS   0/32
ENGLISH_TUTOR   0/2000
EVOLUTION   0/1335
FDECHO   0/217
FDN_ANNOUNCE   0/7068
FIDONEWS   25336
FIDONEWS_OLD1   0/49742
FIDONEWS_OLD2   0/35949
FIDONEWS_OLD3   0/30874
FIDONEWS_OLD4   0/37224
FIDO_SYSOP   12979
FIDO_UTIL   0/180
FILEFIND   0/209
FILEGATE   0/212
Möte HAM, 16958 texter
 lista första sista föregående nästa
Text 5022, 963 rader
Skriven 2012-01-19 22:31:01 av Amsat List (1:323/120.0)
Ärende: [keps] orb12019.amsa
============================
[keps] orb12019.amsa

Sender: keps-bounces@amsat.org
Return-Path: <keps-bounces@amsat.org>
X-Rcpt: craig.healy@chowda.com
X-UIDL: 1327029719.726

SB KEPS @ AMSAT  $ORB12019.O
Orbital Elements  12019.OSCAR

HR AMSAT ORBITAL ELEMENTS FOR OSCAR SATELLITES
FROM WA5QGD FORT WORTH,TX January 19, 2012
Send SUBSCRIBE KEPS/UNSUBSCRIBE KEPS to majordomo@amsat.org only
BID: ORB12019.O
TO ALL RADIO AMATEURS BT

Satellite: AO-07
Catalog number: 07530
Epoch time:      12019.03096837
Element set:     284
Inclination:      101.3974 deg
RA of node:       022.0751 deg
Eccentricity:    0.0011784
Arg of perigee:   216.5746 deg
Mean anomaly:     143.4517 deg
Mean motion:   12.53587100 rev/day
Decay rate:       -2.7e-07 rev/day^2
Epoch rev:           70123
Checksum:              270

Satellite: FO-29
Catalog number: 24278
Epoch time:      12019.21489772
Element set:     755
Inclination:      098.5749 deg
RA of node:       139.5767 deg
Eccentricity:    0.0351195
Arg of perigee:   057.6736 deg
Mean anomaly:     305.7906 deg
Mean motion:   13.52975513 rev/day
Decay rate:        5.0e-08 rev/day^2
Epoch rev:           76167
Checksum:              357

Satellite: SO-33
Catalog number: 25509
Epoch time:      12019.31779474
Element set:     147
Inclination:      031.4344 deg
RA of node:       101.7229 deg
Eccentricity:    0.0353034
Arg of perigee:   331.9485 deg
Mean anomaly:     026.2535 deg
Mean motion:   14.28653930 rev/day
Decay rate:       3.65e-06 rev/day^2
Epoch rev:           69120
Checksum:              292

Satellite: RS-22
Catalog number: 27939
Epoch time:      12019.72260765
Element set:       5
Inclination:      097.8235 deg
RA of node:       228.1016 deg
Eccentricity:    0.0013922
Arg of perigee:   023.3606 deg
Mean anomaly:     336.8227 deg
Mean motion:   14.63871333 rev/day
Decay rate:       4.62e-06 rev/day^2
Epoch rev:           44401
Checksum:              283

Satellite: VO-52
Catalog number: 28650
Epoch time:      12019.85275160
Element set:       3
Inclination:      097.6169 deg
RA of node:       058.0114 deg
Eccentricity:    0.0026646
Arg of perigee:   168.9329 deg
Mean anomaly:     191.2488 deg
Mean motion:   14.82619960 rev/day
Decay rate:       6.92e-06 rev/day^2
Epoch rev:           36284
Checksum:              326

Satellite: SO-67
Catalog number: 35870
Epoch time:      12019.73511875
Element set:     603
Inclination:      097.2539 deg
RA of node:       060.7119 deg
Eccentricity:    0.0002366
Arg of perigee:   022.2094 deg
Mean anomaly:     115.3315 deg
Mean motion:   15.22579031 rev/day
Decay rate:      3.469e-05 rev/day^2
Epoch rev:           12986
Checksum:              301

Satellite: HO-68
Catalog number: 36122
Epoch time:      12019.78476535
Element set:     120
Inclination:      100.3849 deg
RA of node:       082.0215 deg
Eccentricity:    0.0007766
Arg of perigee:   091.0181 deg
Mean anomaly:     269.1815 deg
Mean motion:   13.16292582 rev/day
Decay rate:       -4.4e-07 rev/day^2
Epoch rev:           10073
Checksum:              280

/EX
SB KEPS @ AMSAT  $ORB12019.D
Orbital Elements  12019.MICROS

HR AMSAT ORBITAL ELEMENTS FOR THE MICROSATS
FROM WA5QGD FORT WORTH,TX January 19, 2012
Send SUBSCRIBE KEPS/UNSUBSCRIBE KEPS to majordomo@amsat.org only
BID: ORB12019.D
TO ALL RADIO AMATEURS BT

Satellite: UO-11
Catalog number: 14781
Epoch time:      12019.33740084
Element set:     765
Inclination:      097.9773 deg
RA of node:       080.0326 deg
Eccentricity:    0.0009307
Arg of perigee:   152.4095 deg
Mean anomaly:     207.7610 deg
Mean motion:   14.80280844 rev/day
Decay rate:       6.35e-06 rev/day^2
Epoch rev:           49776
Checksum:              308

Satellite: AO-16
Catalog number: 20439
Epoch time:      12018.86495143
Element set:     376
Inclination:      098.4127 deg
RA of node:       326.5887 deg
Eccentricity:    0.0010023
Arg of perigee:   244.3831 deg
Mean anomaly:     115.6315 deg
Mean motion:   14.32008634 rev/day
Decay rate:       1.33e-06 rev/day^2
Epoch rev:           14848
Checksum:              289

Satellite: LO-19
Catalog number: 20442
Epoch time:      12019.39994680
Element set:     300
Inclination:      098.3779 deg
RA of node:       330.6492 deg
Eccentricity:    0.0011156
Arg of perigee:   233.3635 deg
Mean anomaly:     126.6514 deg
Mean motion:   14.32229998 rev/day
Decay rate:       1.51e-06 rev/day^2
Epoch rev:           14874
Checksum:              310

Satellite: AO-27
Catalog number: 22825
Epoch time:      12018.89183214
Element set:      11
Inclination:      098.5583 deg
RA of node:       324.1794 deg
Eccentricity:    0.0008618
Arg of perigee:   007.1156 deg
Mean anomaly:     353.0147 deg
Mean motion:   14.29422173 rev/day
Decay rate:        9.9e-07 rev/day^2
Epoch rev:           95500
Checksum:              295

Satellite: IO-26
Catalog number: 22826
Epoch time:      12019.06124886
Element set:     758
Inclination:      098.5527 deg
RA of node:       324.7570 deg
Eccentricity:    0.0009084
Arg of perigee:   000.7998 deg
Mean anomaly:     359.3208 deg
Mean motion:   14.29691826 rev/day
Decay rate:        9.7e-07 rev/day^2
Epoch rev:           95515
Checksum:              344

Satellite: GO-32
Catalog number: 25397
Epoch time:      12019.51570968
Element set:     682
Inclination:      098.3468 deg
RA of node:       005.7252 deg
Eccentricity:    0.0001704
Arg of perigee:   033.7365 deg
Mean anomaly:     326.3930 deg
Mean motion:   14.23252262 rev/day
Decay rate:       -9.4e-07 rev/day^2
Epoch rev:           70273
Checksum:              298

